Date String (YYYY-MM-DD hh:mm:ss) UTC,Instrument flags,Ambient pressure (hPa),Sample flow (lpm),Bypass flow (lpm),Sample temperature (°C),Ambient temperature (°C),ASC tube jacket temperature (°C),LED temperature (°C),Box temperature (°C),Sample RH (%),Span deviation,Mass concentration (μg/m³),Mass concentration (μg/m³),Mass concentration (μg/m³)
DateTimeUTC,F1_M11,P_M11,Q1_M11,Q2_M11,T1_M11,T2_M11,T3_M11,T4_M11,T5_M11,U1_M11,ZSPAN_M11,X2_M11,X0_M11,X1_M11
2023-02-26 23:00:00,,0807.5,5.00,0.00,25.7,24.0,00.0,34.5,27.4,13.5,0000.0,0006.21,0009.97,0005.38
2023-02-26 23:01:00,,0807.6,5.00,0.00,25.7,24.0,00.0,34.5,27.5,11.5,0000.0,0005.90,0009.59,0005.12
2023-02-26 23:02:00,,0807.5,5.02,0.00,25.7,24.0,00.0,34.4,27.4,10.8,0000.0,0005.53,0009.53,0004.78
2023-02-26 23:03:00,,0807.4,5.00,0.00,25.6,24.0,00.0,34.4,27.5,10.0,0000.0,0005.14,0009.17,0004.39
2023-02-26 23:04:00,,0807.4,4.99,0.00,25.7,24.0,00.0,34.4,27.5,09.8,0000.0,0004.72,0008.72,0004.01
2023-02-26 23:05:00,,0807.4,5.00,0.00,25.7,24.0,00.0,34.4,27.5,09.8,0000.0,0004.31,0008.34,0003.64
2023-02-26 23:06:00,,0807.4,5.01,0.00,25.7,24.0,00.0,34.4,27.5,09.4,0000.0,0004.11,0008.08,0003.46
2023-02-26 23:07:00,,0807.3,5.01,0.00,25.6,24.0,00.0,34.4,27.5,09.5,0000.0,0004.04,0007.89,0003.39
2023-02-26 23:08:00,,0807.3,5.01,0.00,25.6,24.0,00.0,34.4,27.4,09.8,0000.0,0003.90,0007.74,0003.22
2023-02-26 23:09:00,,0807.3,5.00,0.00,25.6,24.0,00.0,34.4,27.4,10.6,0000.0,0003.74,0007.50,0003.04
2023-02-26 23:10:00,,0807.3,4.99,0.00,25.6,23.9,00.0,34.4,27.4,10.1,0000.0,0003.54,0007.20,0002.67
2023-02-26 23:11:00,,0807.3,5.00,0.00,25.6,24.0,00.0,34.4,27.4,10.5,0000.0,0003.27,0006.48,0002.21
2023-02-26 23:12:00,,0807.3,4.99,0.00,25.6,24.0,00.0,34.4,27.4,10.7,0000.0,0003.10,0006.23,0001.92
2023-02-26 23:13:00,,0807.3,4.99,0.00,25.6,24.0,00.0,34.4,27.4,10.7,0000.0,0003.05,0005.69,0001.86
2023-02-26 23:14:00,,0807.3,4.98,0.00,25.6,23.9,00.0,34.4,27.4,12.4,0000.0,0003.22,0005.86,0002.04
2023-02-26 23:15:00,,0807.3,4.99,0.00,25.6,23.9,00.0,34.4,27.3,13.7,0000.0,0003.50,0006.53,0002.45
2023-02-26 23:16:00,,0807.4,5.00,0.00,25.5,23.8,00.0,34.4,27.3,13.7,0000.0,0003.78,0007.23,0002.88
2023-02-26 23:17:00,,0807.4,5.00,0.00,25.5,23.8,00.0,34.4,27.3,14.2,0000.0,0004.13,0007.79,0003.27
2023-02-26 23:18:00,,0807.4,5.01,0.00,25.5,23.8,00.0,34.3,27.3,14.3,0000.0,0004.39,0008.13,0003.55
2023-02-26 23:19:00,,0807.4,5.01,0.00,25.5,23.8,00.0,34.3,27.3,13.4,0000.0,0004.60,0008.38,0003.79
2023-02-26 23:20:00,,0807.2,5.01,0.00,25.5,23.9,00.0,34.3,27.4,10.6,0000.0,0004.63,0008.38,0003.85
2023-02-26 23:21:00,,0807.2,5.00,0.00,25.5,23.9,00.0,34.3,27.3,09.3,0000.0,0004.59,0008.39,0003.81
2023-02-26 23:22:00,,0807.2,4.99,0.00,25.5,23.8,00.0,34.3,27.3,09.4,0000.0,0004.56,0008.34,0003.77
2023-02-26 23:23:00,,0807.2,4.99,0.00,25.5,23.8,00.0,34.3,27.3,09.4,0000.0,0004.57,0008.50,0003.73
2023-02-26 23:24:00,,0807.3,5.00,0.00,25.5,23.8,00.0,34.3,27.2,09.1,0000.0,0004.59,0008.68,0003.69
2023-02-26 23:25:00,,0807.2,5.00,0.00,25.5,23.7,00.0,34.3,27.2,09.5,0000.0,0004.49,0008.62,0003.59
2023-02-26 23:26:00,,0807.1,4.99,0.00,25.5,23.7,00.0,34.3,27.2,09.4,0000.0,0004.24,0008.33,0003.38
2023-02-26 23:27:00,,0807.2,4.99,0.00,25.4,23.7,00.0,34.3,27.2,09.4,0000.0,0003.97,0007.86,0003.13
2023-02-26 23:28:00,,0807.1,5.00,0.00,25.4,23.6,00.0,34.3,27.2,09.1,0000.0,0003.66,0007.51,0002.66
2023-02-26 23:29:00,,0807.1,5.00,0.00,25.4,23.6,00.0,34.2,27.2,09.1,0000.0,0003.34,0006.92,0002.13
2023-02-26 23:30:00,,0807.2,5.00,0.00,25.4,23.6,00.0,34.2,27.2,09.5,0000.0,0003.10,0006.49,0001.72
2023-02-26 23:31:00,,0807.1,4.99,0.00,25.4,23.7,00.0,34.2,27.1,09.4,0000.0,0002.91,0006.38,0001.39
2023-02-26 23:32:00,,0807.1,5.00,0.00,25.4,23.7,00.0,34.2,27.2,09.1,0000.0,0002.94,0006.39,0001.36
2023-02-26 23:33:00,,0807.2,5.00,0.00,25.4,23.7,00.0,34.2,27.2,09.1,0000.0,0002.91,0007.15,0001.36
2023-02-26 23:34:00,,0807.2,4.99,0.00,25.4,23.7,00.0,34.2,27.2,09.3,0000.0,0002.77,0007.08,0001.33
2023-02-26 23:35:00,,0807.2,5.00,0.00,25.4,23.7,00.0,34.2,27.2,09.4,0000.0,0002.70,0006.95,0001.32
2023-02-26 23:36:00,,0807.1,5.00,0.00,25.4,23.7,00.0,34.2,27.2,08.8,0000.0,0002.66,0006.77,0001.31
2023-02-26 23:37:00,,0807.1,5.00,0.00,25.4,23.7,00.0,34.2,27.2,09.0,0000.0,0002.67,0006.80,0001.31
2023-02-26 23:38:00,,0807.2,5.00,0.00,25.4,23.7,00.0,34.2,27.2,09.0,0000.0,0002.70,0007.18,0001.33
2023-02-26 23:39:00,,0807.3,5.00,0.00,25.4,23.7,00.0,34.2,27.2,08.8,0000.0,0002.71,0007.93,0001.34
2023-02-26 23:40:00,,0807.2,4.99,0.00,25.4,23.8,00.0,34.2,27.2,09.1,0000.0,0002.74,0007.96,0001.34
2023-02-26 23:41:00,,0807.2,5.01,0.00,25.4,23.7,00.0,34.2,27.2,09.1,0000.0,0002.76,0008.03,0001.35
2023-02-26 23:42:00,,0807.3,5.00,0.00,25.4,23.7,00.0,34.2,27.1,09.4,0000.0,0002.69,0007.92,0001.33
2023-02-26 23:43:00,,0807.2,4.99,0.00,25.4,23.7,00.0,34.2,27.1,09.4,0000.0,0002.67,0007.95,0001.33
2023-02-26 23:44:00,,0807.1,5.00,0.00,25.4,23.7,00.0,34.2,27.2,09.6,0000.0,0002.70,0007.50,0001.32
2023-02-26 23:45:00,,0807.1,5.00,0.00,25.3,23.7,00.0,34.1,27.2,09.8,0000.0,0002.89,0007.65,0001.34
2023-02-26 23:46:00,,0807.2,4.99,0.00,25.3,23.7,00.0,34.1,27.2,10.1,0000.0,0002.95,0007.60,0001.35
2023-02-26 23:47:00,,0807.2,5.00,0.00,25.3,23.6,00.0,34.1,27.1,10.3,0000.0,0002.95,0007.59,0001.36
2023-02-26 23:48:00,,0807.2,4.99,0.00,25.3,23.7,00.0,34.1,27.1,09.9,0000.0,0003.03,0007.73,0001.37
2023-02-26 23:49:00,,0807.2,5.00,0.00,25.3,23.7,00.0,34.1,27.1,09.9,0000.0,0003.10,0007.76,0001.35
2023-02-26 23:50:00,,0807.2,5.01,0.00,25.3,23.7,00.0,34.1,27.1,10.2,0000.0,0003.06,0006.75,0001.33
2023-02-26 23:51:00,,0807.3,5.00,0.00,25.3,23.7,00.0,34.1,27.1,10.1,0000.0,0003.07,0006.99,0001.32
2023-02-26 23:52:00,,0807.3,5.00,0.00,25.3,23.7,00.0,34.1,27.1,10.0,0000.0,0003.03,0007.48,0001.33
2023-02-26 23:53:00,,0807.2,5.00,0.00,25.3,23.6,00.0,34.1,27.1,10.1,0000.0,0003.10,0007.61,0001.35
2023-02-26 23:54:00,,0807.1,5.00,0.00,25.3,23.6,00.0,34.1,27.1,09.9,0000.0,0003.12,0007.59,0001.36
2023-02-26 23:55:00,,0807.2,5.00,0.00,25.3,23.6,00.0,34.1,27.1,09.7,0000.0,0003.14,0007.66,0001.39
2023-02-26 23:56:00,,0807.1,4.99,0.00,25.3,23.6,00.0,34.1,27.1,09.5,0000.0,0003.14,0007.57,0001.39
2023-02-26 23:57:00,,0807.1,5.00,0.00,25.3,23.6,00.0,34.1,27.1,09.5,0000.0,0003.06,0007.43,0001.39
2023-02-26 23:58:00,,0807.2,5.00,0.00,25.3,23.6,00.0,34.1,27.1,10.0,0000.0,0003.05,0007.40,0001.39
2023-02-26 23:59:00,,0807.1,5.01,0.00,25.3,23.6,00.0,34.1,27.0,09.6,0000.0,0003.04,0007.31,0001.40
